#Datum;Uhrzeit;WR;Pac;DaySum;Status;WR;Pac;DaySum;Status;Pdc1;Udc;Temp;WR;Pac;DaySum;Status;Pdc1;Udc;Temp;WR;Pac;DaySum;Status;Pdc1;Udc;Temp;WR;Pac;DaySum;Status;Pdc1;Pdc2;Udc1;Udc2;Temp;WR;Pac;DaySum;Status;Pdc1;Pdc2;Udc1;Udc2;Temp;WR;Pac;DaySum;Status;Pdc1;Udc;Temp;WR;Pac;DaySum;Status;Pdc1;Udc;Temp;WR;Pac;DaySum;Status;Pdc1;Udc;Temp
26.01.21;23:55:00;1;645;16840;0;2;0;51;0;0;0;0;3;0;16;0;0;0;0;4;0;43;0;0;0;0;5;0;0;0;0;0;0;0;0;6;0;465;0;0;0;0;0;0;7;0;25;0;0;0;0;8;0;12;0;0;0;0;9;0;11;0;0;0;0
26.01.21;23:50:00;1;425;16790;0;2;0;51;0;0;0;0;3;0;16;0;0;0;0;4;0;43;0;0;0;0;5;0;0;0;0;0;0;0;0;6;0;465;0;0;0;0;0;0;7;0;25;0;0;0;0;8;0;12;0;0;0;0;9;0;11;0;0;0;0
26.01.21;23:45:00;1;1255;16754;0;2;0;51;0;0;0;0;3;0;16;0;0;0;0;4;0;43;0;0;0;0;5;0;0;0;0;0;0;0;0;6;0;465;0;0;0;0;0;0;7;0;25;0;0;0;0;8;0;12;0;0;0;0;9;0;11;0;0;0;0
26.01.21;23:40:00;1;459;16685;0;2;0;51;0;0;0;0;3;0;16;0;0;0;0;4;0;43;0;0;0;0;5;0;0;0;0;0;0;0;0;6;0;465;0;0;0;0;0;0;7;0;25;0;0;0;0;8;0;12;0;0;0;0;9;0;11;0;0;0;0
26.01.21;23:35:00;1;460;16646;0;2;0;51;0;0;0;0;3;0;16;0;0;0;0;4;0;43;0;0;0;0;5;0;0;0;0;0;0;0;0;6;0;465;0;0;0;0;0;0;7;0;25;0;0;0;0;8;0;12;0;0;0;0;9;0;11;0;0;0;0
26.01.21;23:30:00;1;746;16608;0;2;0;51;0;0;0;0;3;0;16;0;0;0;0;4;0;43;0;0;0;0;5;0;0;0;0;0;0;0;0;6;0;465;0;0;0;0;0;0;7;0;25;0;0;0;0;8;0;12;0;0;0;0;9;0;11;0;0;0;0
26.01.21;23:25:00;1;397;16537;0;2;0;51;0;0;0;0;3;0;16;0;0;0;0;4;0;43;0;0;0;0;5;0;0;0;0;0;0;0;0;6;0;465;0;0;0;0;0;0;7;0;25;0;0;0;0;8;0;12;0;0;0;0;9;0;11;0;0;0;0
26.01.21;23:20:00;1;409;16504;0;2;0;51;0;0;0;0;3;0;16;0;0;0;0;4;0;43;0;0;0;0;5;0;0;0;0;0;0;0;0;6;0;465;0;0;0;0;0;0;7;0;25;0;0;0;0;8;0;12;0;0;0;0;9;0;11;0;0;0;0
26.01.21;23:15:00;1;585;16471;0;2;0;51;0;0;0;0;3;0;16;0;0;0;0;4;0;43;0;0;0;0;5;0;0;0;0;0;0;0;0;6;0;465;0;0;0;0;0;0;7;0;25;0;0;0;0;8;0;12;0;0;0;0;9;0;11;0;0;0;0
26.01.21;23:10:00;1;370;16409;0;2;0;51;0;0;0;0;3;0;16;0;0;0;0;4;0;43;0;0;0;0;5;0;0;0;0;0;0;0;0;6;0;465;0;0;0;0;0;0;7;0;25;0;0;0;0;8;0;12;0;0;0;0;9;0;11;0;0;0;0
26.01.21;23:05:00;1;762;16377;0;2;0;51;0;0;0;0;3;0;16;0;0;0;0;4;0;43;0;0;0;0;5;0;0;0;0;0;0;0;0;6;0;465;0;0;0;0;0;0;7;0;25;0;0;0;0;8;0;12;0;0;0;0;9;0;11;0;0;0;0
26.01.21;23:00:00;1;584;16320;0;2;0;51;0;0;0;0;3;0;16;0;0;0;0;4;0;43;0;0;0;0;5;0;0;0;0;0;0;0;0;6;0;465;0;0;0;0;0;0;7;0;25;0;0;0;0;8;0;12;0;0;0;0;9;0;11;0;0;0;0
26.01.21;22:55:00;1;480;16281;0;2;0;51;0;0;0;0;3;0;16;0;0;0;0;4;0;43;0;0;0;0;5;0;0;0;0;0;0;0;0;6;0;465;2;0;0;0;0;0;7;0;25;0;0;0;0;8;0;12;0;0;0;0;9;0;11;0;0;0;0
26.01.21;22:50:00;1;1153;16242;0;2;0;51;0;0;0;0;3;0;16;0;0;0;0;4;0;43;0;0;0;0;5;0;0;0;0;0;0;0;0;6;0;465;2;0;0;0;0;0;7;0;25;0;0;0;0;8;0;12;0;0;0;0;9;0;11;0;0;0;0
26.01.21;22:45:00;1;469;16164;0;2;0;51;0;0;0;0;3;0;16;0;0;0;0;4;0;43;0;0;0;0;5;0;0;0;0;0;0;0;0;6;0;465;2;0;0;0;0;0;7;0;25;0;0;0;0;8;0;12;0;0;0;0;9;0;11;0;0;0;0
26.01.21;22:40:00;1;512;16125;0;2;0;51;0;0;0;0;3;0;16;0;0;0;0;4;0;43;0;0;0;0;5;0;0;0;0;0;0;0;0;6;0;465;2;0;0;0;0;0;7;0;25;0;0;0;0;8;0;12;0;0;0;0;9;0;11;0;0;0;0
26.01.21;22:35:00;1;1083;16083;0;2;0;51;0;0;0;0;3;0;16;0;0;0;0;4;0;43;0;0;0;0;5;0;0;0;0;0;0;0;0;6;0;465;2;0;0;0;0;0;7;0;25;0;0;0;0;8;0;12;0;0;0;0;9;0;11;0;0;0;0
26.01.21;22:30:00;1;440;16010;0;2;0;51;0;0;0;0;3;0;16;0;0;0;0;4;0;43;0;0;0;0;5;0;0;0;0;0;0;0;0;6;0;465;2;0;0;0;0;0;7;0;25;0;0;0;0;8;0;12;0;0;0;0;9;0;11;0;0;0;0
26.01.21;22:25:00;1;465;15973;0;2;0;51;0;0;0;0;3;0;16;0;0;0;0;4;0;43;0;0;0;0;5;0;0;0;0;0;0;0;0;6;0;465;2;0;0;0;0;0;7;0;25;0;0;0;0;8;0;12;0;0;0;0;9;0;11;0;0;0;0
26.01.21;22:20:00;1;736;15933;0;2;0;51;0;0;0;0;3;0;16;0;0;0;0;4;0;43;0;0;0;0;5;0;0;0;0;0;0;0;0;6;0;465;2;0;0;0;0;0;7;0;25;0;0;0;0;8;0;12;0;0;0;0;9;0;11;0;0;0;0
26.01.21;22:15:00;1;468;15853;0;2;0;51;0;0;0;0;3;0;16;0;0;0;0;4;0;43;0;0;0;0;5;0;0;0;0;0;0;0;0;6;0;465;2;0;0;0;0;0;7;0;25;0;0;0;0;8;0;12;0;0;0;0;9;0;11;0;0;0;0
26.01.21;22:10:00;1;659;15815;0;2;0;51;0;0;0;0;3;0;16;0;0;0;0;4;0;43;0;0;0;0;5;0;0;0;0;0;0;0;0;6;0;465;2;0;0;0;0;0;7;0;25;0;0;0;0;8;0;12;0;0;0;0;9;0;11;0;0;0;0
26.01.21;22:05:00;1;881;15764;0;2;0;51;0;0;0;0;3;0;16;0;0;0;0;4;0;43;0;0;0;0;5;0;0;0;0;0;0;0;0;6;0;465;2;0;0;0;0;0;7;0;25;0;0;0;0;8;0;12;0;0;0;0;9;0;11;0;0;0;0
26.01.21;22:00:00;1;739;15683;0;2;0;51;0;0;0;0;3;0;16;0;0;0;0;4;0;43;0;0;0;0;5;0;0;0;0;0;0;0;0;6;0;465;2;0;0;0;0;0;7;0;25;0;0;0;0;8;0;12;0;0;0;0;9;0;11;0;0;0;0
26.01.21;21:55:00;1;1241;15621;0;2;0;51;0;0;0;0;3;0;16;0;0;0;0;4;0;43;0;0;0;0;5;0;0;0;0;0;0;0;0;6;0;465;2;0;0;0;0;0;7;0;25;0;0;0;0;8;0;12;0;0;0;0;9;0;11;0;0;0;0
26.01.21;21:50:00;1;753;15521;0;2;0;51;0;0;0;0;3;0;16;0;0;0;0;4;0;43;0;0;0;0;5;0;0;0;0;0;0;0;0;6;0;465;2;0;0;0;0;0;7;0;25;0;0;0;0;8;0;12;0;0;0;0;9;0;11;0;0;0;0
26.01.21;21:45:00;1;737;15457;0;2;0;51;0;0;0;0;3;0;16;0;0;0;0;4;0;43;0;0;0;0;5;0;0;0;0;0;0;0;0;6;0;465;2;0;0;0;0;0;7;0;25;0;0;0;0;8;0;12;0;0;0;0;9;0;11;0;0;0;0
26.01.21;21:40:00;1;1089;15394;0;2;0;51;0;0;0;0;3;0;16;0;0;0;0;4;0;43;0;0;0;0;5;0;0;0;0;0;0;0;0;6;0;465;2;0;0;0;0;0;7;0;25;0;0;0;0;8;0;12;0;0;0;0;9;0;11;0;0;0;0
26.01.21;21:35:00;1;687;15296;0;2;0;51;0;0;0;0;3;0;16;0;0;0;0;4;0;43;0;0;0;0;5;0;0;0;0;0;0;0;0;6;0;465;2;0;0;0;0;0;7;0;25;0;0;0;0;8;0;12;0;0;0;0;9;0;11;0;0;0;0
26.01.21;21:30:00;1;701;15238;0;2;0;51;0;0;0;0;3;0;16;0;0;0;0;4;0;43;0;0;0;0;5;0;0;0;0;0;0;0;0;6;0;465;2;0;0;0;0;0;7;0;25;0;0;0;0;8;0;12;0;0;0;0;9;0;11;0;0;0;0
26.01.21;21:25:00;1;1104;15180;0;2;0;51;0;0;0;0;3;0;16;0;0;0;0;4;0;43;0;0;0;0;5;0;0;0;0;0;0;0;0;6;0;465;2;0;0;0;0;0;7;0;25;0;0;0;0;8;0;12;0;0;0;0;9;0;11;0;0;0;0
26.01.21;21:20:00;1;725;15088;0;2;0;51;0;0;0;0;3;0;16;0;0;0;0;4;0;43;0;0;0;0;5;0;0;0;0;0;0;0;0;6;0;465;2;0;0;0;0;0;7;0;25;0;0;0;0;8;0;12;0;0;0;0;9;0;11;0;0;0;0
26.01.21;21:15:00;1;816;15025;0;2;0;51;0;0;0;0;3;0;16;0;0;0;0;4;0;43;0;0;0;0;5;0;0;0;0;0;0;0;0;6;0;465;2;0;0;0;0;0;7;0;25;0;0;0;0;8;0;12;0;0;0;0;9;0;11;0;0;0;0
26.01.21;21:10:00;1;1128;14958;0;2;0;51;0;0;0;0;3;0;16;0;0;0;0;4;0;43;0;0;0;0;5;0;0;0;0;0;0;0;0;6;0;465;2;0;0;0;0;0;7;0;25;0;0;0;0;8;0;12;0;0;0;0;9;0;11;0;0;0;0
26.01.21;21:05:00;1;724;14858;0;2;0;51;0;0;0;0;3;0;16;0;0;0;0;4;0;43;0;0;0;0;5;0;0;0;0;0;0;0;0;6;0;465;2;0;0;0;0;0;7;0;25;0;0;0;0;8;0;12;0;0;0;0;9;0;11;0;0;0;0
26.01.21;21:00:00;1;1182;14796;0;2;0;51;0;0;0;0;3;0;16;0;0;0;0;4;0;43;0;0;0;0;5;0;0;0;0;0;0;0;0;6;0;465;2;0;0;0;0;0;7;0;25;0;0;0;0;8;0;12;0;0;0;0;9;0;11;0;0;0;0
26.01.21;20:55:00;1;944;14707;0;2;0;51;0;0;0;0;3;0;16;0;0;0;0;4;0;43;0;0;0;0;5;0;0;0;0;0;0;0;0;6;0;465;2;0;0;0;0;0;7;0;25;0;0;0;0;8;0;12;0;0;0;0;9;0;11;0;0;0;0
26.01.21;20:50:00;1;822;14640;0;2;0;51;0;0;0;0;3;0;16;0;0;0;0;4;0;43;0;0;0;0;5;0;0;0;0;0;0;0;0;6;0;465;2;0;0;0;0;0;7;0;25;0;0;0;0;8;0;12;0;0;0;0;9;0;11;0;0;0;0
26.01.21;20:45:00;1;1578;14573;0;2;0;51;0;0;0;0;3;0;16;0;0;0;0;4;0;43;0;0;0;0;5;0;0;0;0;0;0;0;0;6;0;465;2;0;0;0;0;0;7;0;25;0;0;0;0;8;0;12;0;0;0;0;9;0;11;0;0;0;0
26.01.21;20:40:00;1;740;14472;0;2;0;51;0;0;0;0;3;0;16;0;0;0;0;4;0;43;0;0;0;0;5;0;0;0;0;0;0;0;0;6;0;465;2;0;0;0;0;0;7;0;25;0;0;0;0;8;0;12;0;0;0;0;9;0;11;0;0;0;0
26.01.21;20:35:00;1;697;14411;0;2;0;51;0;0;0;0;3;0;16;0;0;0;0;4;0;43;0;0;0;0;5;0;0;0;0;0;0;0;0;6;0;465;2;0;0;0;0;0;7;0;25;0;0;0;0;8;0;12;0;0;0;0;9;0;11;0;0;0;0
26.01.21;20:30:00;1;1026;14352;0;2;0;51;0;0;0;0;3;0;16;0;0;0;0;4;0;43;0;0;0;0;5;0;0;0;0;0;0;0;0;6;0;465;2;0;0;0;0;0;7;0;25;0;0;0;0;8;0;12;0;0;0;0;9;0;11;0;0;0;0
26.01.21;20:25:00;1;779;14253;0;2;0;51;0;0;0;0;3;0;16;0;0;0;0;4;0;43;0;0;0;0;5;0;0;0;0;0;0;0;0;6;0;465;2;0;0;0;0;0;7;0;25;0;0;0;0;8;0;12;0;0;0;0;9;0;11;0;0;0;0
26.01.21;20:20:00;1;916;14187;0;2;0;51;0;0;0;0;3;0;16;0;0;0;0;4;0;43;0;0;0;0;5;0;0;0;0;0;0;0;0;6;0;465;2;0;0;0;0;0;7;0;25;0;0;0;0;8;0;12;0;0;0;0;9;0;11;0;0;0;0
26.01.21;20:15:00;1;878;14115;0;2;0;51;0;0;0;0;3;0;16;0;0;0;0;4;0;43;0;0;0;0;5;0;0;0;0;0;0;0;0;6;0;465;2;0;0;0;0;0;7;0;25;0;0;0;0;8;0;12;0;0;0;0;9;0;11;0;0;0;0
26.01.21;20:10:00;1;755;14014;0;2;0;51;0;0;0;0;3;0;16;0;0;0;0;4;0;43;0;0;0;0;5;0;0;0;0;0;0;0;0;6;0;465;2;0;0;0;0;0;7;0;25;0;0;0;0;8;0;12;0;0;0;0;9;0;11;0;0;0;0
26.01.21;20:05:00;1;1146;13951;0;2;0;51;0;0;0;0;3;0;16;0;0;0;0;4;0;43;0;0;0;0;5;0;0;0;0;0;0;0;0;6;0;465;2;0;0;0;0;0;7;0;25;0;0;0;0;8;0;12;0;0;0;0;9;0;11;0;0;0;0
26.01.21;20:00:00;1;892;13858;0;2;0;51;0;0;0;0;3;0;16;0;0;0;0;4;0;43;0;0;0;0;5;0;0;0;0;0;0;0;0;6;0;465;2;0;0;0;0;0;7;0;25;0;0;0;0;8;0;12;0;0;0;0;9;0;11;0;0;0;0
26.01.21;19:55:00;1;747;13792;0;2;0;51;0;0;0;0;3;0;16;0;0;0;0;4;0;43;0;0;0;0;5;0;0;0;0;0;0;0;0;6;0;465;2;0;0;0;0;0;7;0;25;0;0;0;0;8;0;12;0;0;0;0;9;0;11;0;0;0;0
26.01.21;19:50:00;1;1756;13731;0;2;0;51;0;0;0;0;3;0;16;0;0;0;0;4;0;43;0;0;0;0;5;0;0;0;0;0;0;0;0;6;0;465;2;0;0;0;0;0;7;0;25;0;0;0;0;8;0;12;0;0;0;0;9;0;11;0;0;0;0
26.01.21;19:45:00;1;2567;13576;0;2;0;51;0;0;0;0;3;0;16;0;0;0;0;4;0;43;0;0;0;0;5;0;0;0;0;0;0;0;0;6;0;465;2;0;0;0;0;0;7;0;25;0;0;0;0;8;0;12;0;0;0;0;9;0;11;0;0;0;0
26.01.21;19:40:00;1;2620;13360;0;2;0;51;0;0;0;0;3;0;16;0;0;0;0;4;0;43;0;0;0;0;5;0;0;0;0;0;0;0;0;6;0;465;2;0;0;0;0;0;7;0;25;0;0;0;0;8;0;12;0;0;0;0;9;0;11;0;0;0;0
26.01.21;19:35:00;1;3093;13142;0;2;0;51;0;0;0;0;3;0;16;0;0;0;0;4;0;43;0;0;0;0;5;0;0;0;0;0;0;0;0;6;0;465;0;0;0;0;0;0;7;0;25;0;0;0;0;8;0;12;0;0;0;0;9;0;11;0;0;0;0
26.01.21;19:30:00;1;1618;12887;0;2;0;51;0;0;0;0;3;0;16;0;0;0;0;4;0;43;0;0;0;0;5;0;0;0;0;0;0;0;0;6;0;465;2;0;0;0;0;0;7;0;25;0;0;0;0;8;0;12;0;0;0;0;9;0;11;0;0;0;0
26.01.21;19:25:00;1;813;12732;0;2;0;51;0;0;0;0;3;0;16;0;0;0;0;4;0;43;0;0;0;0;5;0;0;0;0;0;0;0;0;6;0;465;2;0;0;0;0;0;7;0;25;0;0;0;0;8;0;12;0;0;0;0;9;0;11;0;0;0;0
26.01.21;19:20:00;1;1223;12666;0;2;0;51;0;0;0;0;3;0;16;0;0;0;0;4;0;43;0;0;0;0;5;0;0;0;0;0;0;0;0;6;0;465;2;0;0;0;0;0;7;0;25;0;0;0;0;8;0;12;0;0;0;0;9;0;11;0;0;0;0
26.01.21;19:15:00;1;547;12571;0;2;0;51;0;0;0;0;3;0;16;0;0;0;0;4;0;43;0;0;0;0;5;0;0;0;0;0;0;0;0;6;0;465;2;0;0;0;0;0;7;0;25;0;0;0;0;8;0;12;0;0;0;0;9;0;11;0;0;0;0
26.01.21;19:10:00;1;816;12525;0;2;0;51;0;0;0;0;3;0;16;0;0;0;0;4;0;43;0;0;0;0;5;0;0;0;0;0;0;0;0;6;0;465;2;0;0;0;0;0;7;0;25;0;0;0;0;8;0;12;0;0;0;0;9;0;11;0;0;0;0
26.01.21;19:05:00;1;1646;12453;0;2;0;51;0;0;0;0;3;0;16;0;0;0;0;4;0;43;0;0;0;0;5;0;0;0;0;0;0;0;0;6;0;465;2;0;0;0;0;0;7;0;25;0;0;0;0;8;0;12;0;0;0;0;9;0;11;0;0;0;0
26.01.21;19:00:00;1;1454;12316;0;2;0;51;0;0;0;0;3;0;16;0;0;0;0;4;0;43;0;0;0;0;5;0;0;0;0;0;0;0;0;6;0;465;2;0;0;0;0;0;7;0;25;0;0;0;0;8;0;12;0;0;0;0;9;0;11;0;0;0;0
26.01.21;18:55:00;1;2072;12194;0;2;0;51;0;0;0;0;3;0;16;0;0;0;0;4;0;43;0;0;0;0;5;0;0;0;0;0;0;0;0;6;0;465;2;0;0;0;0;0;7;0;25;0;0;0;0;8;0;12;0;0;0;0;9;0;11;0;0;0;0
26.01.21;18:50:00;1;2368;12049;0;2;0;51;0;0;0;0;3;0;16;0;0;0;0;4;0;43;0;0;0;0;5;0;0;0;0;0;0;0;0;6;0;465;2;0;0;0;0;0;7;0;25;0;0;0;0;8;0;12;0;0;0;0;9;0;11;0;0;0;0
26.01.21;18:45:00;1;2316;11853;0;2;0;51;0;0;0;0;3;0;16;0;0;0;0;4;0;43;0;0;0;0;5;0;0;0;0;0;0;0;0;6;0;465;2;0;0;0;0;0;7;0;25;0;0;0;0;8;0;12;0;0;0;0;9;0;11;0;0;0;0
26.01.21;18:40:00;1;2470;11659;0;2;0;51;0;0;0;0;3;0;16;0;0;0;0;4;0;43;0;0;0;0;5;0;0;0;0;0;0;0;0;6;0;465;2;0;0;0;0;0;7;0;25;0;0;0;0;8;0;12;0;0;0;0;9;0;11;0;0;0;0
26.01.21;18:35:00;1;497;11453;0;2;0;51;0;0;0;0;3;0;16;0;0;0;0;4;0;43;0;0;0;0;5;0;0;0;0;0;0;0;0;6;0;465;2;0;0;0;0;0;7;0;25;0;0;0;0;8;0;12;0;0;0;0;9;0;11;0;0;0;0
26.01.21;18:30:00;1;461;11411;0;2;0;51;0;0;0;0;3;0;16;0;0;0;0;4;0;43;0;0;0;0;5;0;0;0;0;0;0;0;0;6;0;465;2;0;0;0;0;0;7;0;25;0;0;0;0;8;0;12;0;0;0;0;9;0;11;0;0;0;0
26.01.21;18:25:00;1;889;11373;0;2;0;51;0;0;0;0;3;0;16;0;0;0;0;4;0;43;0;0;0;0;5;0;0;0;0;0;0;0;0;6;0;465;2;0;0;0;0;0;7;0;25;0;0;0;0;8;0;12;0;0;0;0;9;0;11;0;0;0;0
26.01.21;18:20:00;1;503;11296;0;2;0;51;0;0;0;0;3;0;16;0;0;0;0;4;0;43;0;0;0;0;5;0;0;0;0;0;0;0;0;6;0;465;2;0;0;0;0;0;7;0;25;0;0;0;0;8;0;12;0;0;0;0;9;0;11;0;0;0;0
26.01.21;18:15:00;1;375;11254;0;2;0;51;0;0;0;0;3;0;16;0;0;0;0;4;0;43;0;0;0;0;5;0;0;0;0;0;0;0;0;6;0;465;2;0;0;0;0;0;7;0;25;0;0;0;0;8;0;12;0;0;0;0;9;0;11;0;0;0;0
26.01.21;18:10:00;1;505;11222;0;2;0;51;0;0;0;0;3;0;16;0;0;0;0;4;0;43;0;0;0;0;5;0;0;0;0;0;0;0;0;6;0;465;2;0;0;0;0;0;7;0;25;0;0;0;0;8;0;12;0;0;0;0;9;0;11;0;0;0;0
26.01.21;18:05:00;1;353;11159;0;2;0;51;0;0;0;0;3;0;16;0;0;0;0;4;0;43;0;0;0;0;5;0;0;0;0;0;0;0;0;6;0;465;2;0;0;0;0;0;7;0;25;0;0;0;0;8;0;12;0;0;0;0;9;0;11;0;0;0;0
26.01.21;18:00:00;1;416;11129;0;2;0;51;0;0;0;0;3;0;16;0;0;0;0;4;0;43;0;0;0;0;5;0;0;0;0;0;0;0;0;6;0;465;2;0;0;0;0;0;7;0;25;0;0;0;0;8;0;12;0;0;0;0;9;0;11;0;0;0;0
26.01.21;17:55:00;1;425;11096;0;2;0;51;0;0;0;0;3;0;16;0;0;0;0;4;0;43;0;0;0;0;5;0;0;0;0;0;0;0;0;6;0;465;2;0;0;0;0;0;7;0;25;0;0;0;0;8;0;12;0;0;0;0;9;0;11;0;0;0;0
26.01.21;17:50:00;1;449;11029;0;2;0;51;0;0;0;0;3;0;16;0;0;0;0;4;0;43;0;0;0;0;5;0;0;0;0;0;0;0;0;6;0;465;2;0;0;0;0;0;7;0;25;0;0;0;0;8;0;12;0;0;0;0;9;0;11;0;0;0;0
26.01.21;17:45:00;1;371;10992;0;2;0;51;0;0;0;0;3;0;16;0;0;0;0;4;0;43;0;0;0;0;5;0;0;0;0;0;0;0;0;6;0;465;2;0;0;0;0;0;7;0;25;0;0;0;0;8;0;12;0;0;0;0;9;0;11;0;0;0;0
26.01.21;17:40:00;1;679;10942;0;2;0;51;0;0;0;0;3;0;16;0;0;0;0;4;0;43;0;0;0;0;5;0;0;0;0;0;0;0;0;6;0;465;2;0;0;0;0;0;7;0;25;0;0;0;0;8;0;12;0;0;0;0;9;0;11;0;0;0;0
26.01.21;17:35:00;1;355;10886;0;2;0;51;0;0;0;0;3;0;16;0;0;0;0;4;0;43;0;0;0;0;5;0;0;0;0;0;0;0;0;6;0;465;2;0;0;0;0;0;7;0;25;0;0;0;0;8;0;12;0;0;0;0;9;0;11;0;0;0;0
26.01.21;17:30:00;1;649;10856;0;2;0;51;0;0;0;0;3;0;16;0;0;0;0;4;0;43;0;0;0;0;5;0;0;0;0;0;0;0;0;6;0;465;2;0;0;0;0;0;7;0;25;0;0;0;0;8;0;12;0;0;0;0;9;0;11;0;0;0;0
26.01.21;17:25:00;1;630;10803;0;2;0;51;0;0;0;0;3;0;16;0;0;0;0;4;0;43;0;0;0;0;5;0;0;0;0;0;0;0;0;6;0;465;2;0;0;0;0;0;7;0;25;0;0;0;0;8;0;12;0;0;0;0;9;0;11;0;0;0;0
26.01.21;17:20:00;1;418;10750;0;2;0;51;0;0;0;0;3;0;16;0;0;0;0;4;0;43;0;0;0;0;5;0;0;0;0;0;0;0;0;6;0;465;2;0;0;0;0;0;7;0;25;0;0;0;0;8;0;12;0;0;0;0;9;0;11;0;0;0;0
26.01.21;17:15:00;1;797;10714;0;2;0;51;0;0;0;0;3;0;16;0;0;0;0;4;0;43;0;0;0;0;5;0;0;0;0;0;0;0;0;6;0;465;2;0;0;0;0;0;7;0;25;0;0;0;0;8;0;12;0;0;0;0;9;0;11;0;0;0;0
26.01.21;17:10:00;1;2072;10647;0;2;0;51;0;0;0;0;3;0;16;0;0;0;0;4;0;43;0;0;0;0;5;0;0;0;0;0;0;0;0;6;0;465;2;0;0;0;0;0;7;0;25;0;0;0;0;8;0;12;0;0;0;0;9;0;11;0;0;0;0
26.01.21;17:05:00;1;1199;10487;0;2;0;51;0;0;0;0;3;0;16;0;0;0;0;4;0;43;0;0;0;0;5;0;0;0;0;0;0;0;0;6;0;465;2;0;0;0;0;0;7;0;25;0;0;0;0;8;0;12;0;0;0;0;9;0;11;0;0;0;0
26.01.21;17:00:00;1;1663;10388;0;2;0;51;0;0;195;4;3;0;16;0;0;237;8;4;0;43;0;0;0;0;5;0;0;0;0;0;0;0;0;6;0;465;2;0;0;0;0;0;7;0;25;0;0;0;0;8;0;12;0;0;0;0;9;0;11;0;0;0;0
26.01.21;16:55:00;1;895;10267;0;2;0;51;6;0;287;6;3;0;16;6;0;295;10;4;0;43;0;0;29;0;5;0;0;0;0;0;0;0;0;6;0;465;2;0;0;0;0;0;7;0;25;0;0;0;0;8;0;12;0;0;0;0;9;0;11;0;0;0;0
26.01.21;16:50:00;1;715;10195;0;2;0;51;6;0;320;6;3;0;16;6;0;347;10;4;0;43;2;0;93;2;5;0;0;0;0;0;0;0;0;6;0;465;1;0;0;0;0;4;7;0;25;0;0;111;3;8;0;12;0;0;0;0;9;0;11;0;0;72;1
26.01.21;16:45:00;1;1064;10135;0;2;0;51;6;0;356;6;3;0;16;6;1;389;10;4;0;43;1;0;130;2;5;0;0;0;0;0;0;0;0;6;0;465;23;6;3;351;234;16;7;0;25;6;0;305;8;8;0;12;0;0;0;0;9;0;11;6;0;289;5
26.01.21;16:40:00;1;318;10050;0;2;0;51;6;0;369;6;3;0;16;6;0;423;10;4;0;43;1;0;146;3;5;0;0;0;0;0;0;0;0;6;0;465;23;5;4;267;472;16;7;0;25;6;0;339;8;8;0;12;0;0;0;0;9;0;11;6;0;308;6
26.01.21;16:35:00;1;309;10024;0;2;0;51;6;0;375;6;3;0;16;6;1;418;10;4;0;43;1;0;155;3;5;0;0;0;0;0;0;0;0;6;0;465;23;3;3;516;242;17;7;0;25;6;0;351;8;8;0;12;0;0;0;0;9;0;11;6;0;319;6
26.01.21;16:30:00;1;551;9998;0;2;0;51;6;0;377;6;3;0;16;6;0;431;10;4;0;43;1;0;156;3;5;0;0;0;0;0;0;0;0;6;0;465;23;4;4;241;489;17;7;0;25;6;0;352;8;8;0;12;0;0;83;2;9;0;11;6;0;320;6
26.01.21;16:25:00;1;316;9939;0;2;0;51;6;0;392;6;3;0;16;6;0;455;10;4;0;43;1;0;179;3;5;0;0;0;0;0;0;0;0;6;0;465;23;4;5;572;201;17;7;0;25;6;0;381;8;8;0;12;6;0;279;7;9;0;11;6;0;353;6
26.01.21;16:20:00;1;390;9912;0;2;0;51;6;0;399;6;3;0;16;6;0;496;10;4;0;43;1;0;190;3;5;0;0;0;0;0;0;0;0;6;0;465;23;3;4;581;226;17;7;0;25;6;0;403;8;8;0;12;6;0;306;8;9;0;11;6;0;379;6
26.01.21;16:15:00;1;750;9880;0;2;1;51;6;2;402;6;3;0;16;4;3;471;10;4;0;43;1;0;213;3;5;0;0;0;0;0;0;0;0;6;0;465;1;2;6;598;375;18;7;0;25;6;0;410;8;8;0;12;6;0;359;8;9;0;11;6;0;415;6
26.01.21;16:10:00;1;339;9814;0;2;2;51;6;4;402;6;3;0;16;3;3;464;10;4;0;43;3;0;205;3;5;0;0;0;0;0;0;0;0;6;0;465;23;2;7;608;508;18;7;0;25;6;1;449;8;8;0;12;6;0;399;8;9;0;11;6;0;446;6
26.01.21;16:05:00;1;308;9785;0;2;0;51;6;0;413;6;3;0;16;6;1;471;10;4;0;43;1;0;213;3;5;0;0;0;0;0;0;0;0;6;0;465;8;2;8;596;473;18;7;0;25;6;0;428;8;8;0;12;6;0;365;8;9;0;11;6;0;421;6
26.01.21;16:00:00;1;380;9759;0;2;0;51;6;0;407;6;3;0;16;6;1;482;10;4;0;43;1;0;204;3;5;0;0;0;0;0;0;0;0;6;0;465;23;2;6;591;418;18;7;0;24;6;0;431;8;8;0;12;6;0;343;8;9;0;11;6;0;414;6
26.01.21;15:55:00;1;374;9695;0;2;0;51;6;0;412;6;3;0;16;6;1;486;10;4;0;43;1;0;212;4;5;0;0;0;0;0;0;0;0;6;0;465;23;1;8;595;515;19;7;0;24;4;0;428;8;8;0;12;6;0;356;8;9;0;11;6;0;413;6
26.01.21;15:50:00;1;360;9664;0;2;2;51;4;4;399;6;3;0;16;6;1;506;10;4;0;43;1;0;224;4;5;0;0;0;0;0;0;0;0;6;0;465;1;1;7;605;478;19;7;0;24;3;2;409;8;8;0;12;6;0;390;8;9;0;11;6;0;441;6
26.01.21;15:45:00;1;416;9635;0;2;1;51;3;3;408;6;3;0;16;6;0;530;10;4;0;43;1;0;226;4;5;0;0;0;0;0;0;0;0;6;0;465;8;1;5;607;513;19;7;0;24;6;4;421;8;8;0;12;6;0;396;8;9;0;11;6;0;442;6
26.01.21;15:40:00;1;426;9565;0;2;2;51;6;6;406;6;3;0;16;4;4;493;10;4;0;43;3;0;211;4;5;0;0;0;0;0;0;0;0;6;0;465;8;0;9;615;482;20;7;0;24;6;1;461;8;8;0;12;6;0;407;8;9;0;11;3;1;441;6
26.01.21;15:35:00;1;451;9530;0;2;1;50;6;4;423;6;3;1;16;6;3;528;10;4;0;43;3;0;228;4;5;0;0;0;0;0;0;0;0;6;9;465;8;6;19;594;564;20;7;2;24;6;1;469;8;8;0;12;6;0;423;8;9;0;11;6;0;476;6
26.01.21;15:30:00;1;483;9492;0;2;3;50;6;9;414;6;3;1;16;6;3;536;10;4;0;43;3;0;226;4;5;0;0;0;0;0;0;0;0;6;60;464;4;15;32;450;448;21;7;1;24;6;2;492;8;8;1;12;6;1;450;8;9;1;11;6;1;509;6
26.01.21;15:25:00;1;438;9419;0;2;4;50;6;8;431;6;3;2;16;6;5;540;10;4;0;43;3;0;211;5;5;0;0;0;0;0;0;0;0;6;77;458;4;31;64;450;449;21;7;0;24;6;0;527;8;8;0;12;6;0;489;8;9;1;11;6;2;528;6
26.01.21;15:20:00;1;414;9384;0;2;6;50;4;14;419;6;3;4;15;6;9;522;10;4;1;43;3;1;200;5;5;0;0;0;0;0;0;0;0;6;76;452;4;23;48;450;448;21;7;6;24;3;13;484;8;8;1;12;4;4;450;8;9;1;11;6;2;536;6
26.01.21;15:15:00;1;624;9350;0;2;7;49;3;14;419;6;3;1;15;6;4;546;10;4;2;43;3;2;200;5;5;0;0;0;0;0;0;0;0;6;75;446;4;23;50;450;448;21;7;0;23;6;5;505;8;8;2;12;6;1;469;8;9;1;11;6;2;535;6
26.01.21;15:10:00;1;425;9282;0;2;4;48;6;11;417;6;3;3;15;4;8;513;10;4;3;42;3;3;200;5;5;0;0;0;0;0;0;0;0;6;68;439;4;19;39;450;448;21;7;1;23;6;4;499;8;8;0;12;6;1;459;8;9;2;11;3;3;502;6
26.01.21;15:05:00;1;392;9247;0;2;4;48;6;13;407;6;3;3;15;3;8;505;10;4;1;42;3;1;200;5;5;0;0;0;0;0;0;0;0;6;62;434;4;26;52;450;449;21;7;1;23;6;5;491;8;8;1;12;6;2;450;8;9;1;10;6;1;516;6
26.01.21;15:00:00;1;362;9214;0;2;2;48;6;5;428;6;3;2;14;6;6;513;10;4;0;42;3;0;200;4;5;0;0;0;0;0;0;0;0;6;63;428;4;23;44;450;449;21;7;2;23;6;4;497;8;8;0;12;6;3;437;8;9;0;10;6;2;523;6
26.01.21;14:55:00;1;361;9151;0;2;3;47;6;11;412;6;3;2;14;6;6;514;10;4;0;42;3;0;200;4;5;0;0;0;0;0;0;0;0;6;60;423;4;17;32;450;448;21;7;1;23;6;4;495;8;8;0;12;6;1;454;8;9;0;10;6;2;522;6
26.01.21;14:50:00;1;402;9121;0;2;0;47;6;0;433;6;3;2;14;6;6;510;10;4;0;42;3;0;223;4;5;0;0;0;0;0;0;0;0;6;59;418;4;18;37;450;449;21;7;1;23;4;8;469;8;8;0;12;4;3;434;8;9;0;10;6;1;516;6
26.01.21;14:45:00;1;657;9089;0;2;4;47;3;10;415;6;3;3;14;6;6;514;10;4;0;42;3;0;233;5;5;0;0;0;0;0;0;0;0;6;63;413;4;17;33;450;448;21;7;1;23;6;4;497;8;8;2;12;3;3;439;8;9;0;10;6;2;525;6
26.01.21;14:40:00;1;403;9021;0;2;4;47;6;7;431;6;3;1;13;6;3;534;10;4;0;42;3;0;199;5;5;0;0;0;0;0;0;0;0;6;73;408;4;28;53;450;448;21;7;3;22;6;11;480;9;8;0;11;6;3;463;8;9;1;10;4;4;510;6
26.01.21;14:35:00;1;405;8987;0;2;6;47;6;11;434;6;3;3;13;3;12;518;10;4;14;42;3;15;199;5;5;0;0;0;0;0;0;0;0;6;91;401;4;36;66;450;448;21;7;2;22;6;9;516;8;8;1;11;6;5;467;8;9;3;10;3;4;547;6
26.01.21;14:30:00;1;369;8953;0;2;5;46;6;9;438;6;3;0;13;6;5;556;10;4;16;40;3;16;199;5;5;0;0;0;0;0;0;0;0;6;95;394;4;36;63;450;448;21;7;12;22;6;17;491;9;8;1;11;6;4;489;8;9;4;10;6;6;530;6
26.01.21;14:25:00;1;360;8888;0;2;9;46;6;13;440;6;3;3;13;6;15;519;10;4;15;39;3;15;199;5;5;0;0;0;0;0;0;0;0;6;111;386;4;44;76;450;449;21;7;0;21;6;0;545;9;8;1;11;6;9;491;8;9;1;9;6;4;559;6
26.01.21;14:20:00;1;405;8858;0;2;6;45;6;10;440;6;3;0;12;6;5;549;10;4;13;37;3;13;199;5;5;0;0;0;0;0;0;0;0;6;104;376;4;36;60;450;449;21;7;9;21;4;20;492;8;8;0;11;6;0;514;8;9;0;9;6;7;537;6
26.01.21;14:15:00;1;899;8826;0;2;7;45;4;11;442;6;3;1;12;6;10;521;10;4;16;36;3;17;199;5;5;0;0;0;0;0;0;0;0;6;107;368;4;43;74;450;449;21;7;15;20;3;21;497;8;8;2;11;3;7;485;8;9;1;9;6;3;565;6
26.01.21;14:10:00;1;416;8756;0;2;17;44;3;29;405;6;3;0;12;6;0;567;10;4;9;35;3;9;199;4;5;0;0;0;0;0;0;0;0;6;91;359;4;37;64;450;448;20;7;8;19;6;15;489;9;8;0;11;6;4;488;8;9;3;9;4;6;528;6
26.01.21;14:05:00;1;410;8722;0;2;12;42;6;19;420;6;3;2;12;3;5;527;10;4;6;34;3;6;199;4;5;0;0;0;0;0;0;0;0;6;90;351;4;34;59;450;448;20;7;11;18;6;15;490;9;8;0;11;6;4;487;8;9;0;9;3;7;533;6
26.01.21;14:00:00;1;894;8687;0;2;7;41;6;10;438;6;3;1;12;6;5;541;10;4;19;34;3;20;199;4;5;0;0;0;0;0;0;0;0;6;100;344;4;40;67;450;448;20;7;2;17;6;8;509;8;8;1;11;6;4;493;8;9;1;9;6;7;535;6
26.01.21;13:55:00;1;448;8621;0;2;15;41;6;20;423;6;3;0;12;6;5;521;10;4;15;32;3;15;199;4;5;0;0;0;0;0;0;0;0;6;103;335;4;42;65;450;448;20;7;12;17;6;20;494;9;8;3;11;6;7;495;8;9;1;9;6;4;566;6
26.01.21;13:50:00;1;427;8584;0;2;7;39;6;11;440;6;3;1;12;6;5;539;10;4;20;31;3;20;199;4;5;0;0;0;0;0;0;0;0;6;105;327;4;44;69;450;449;20;7;5;16;6;10;507;8;8;0;11;6;0;518;8;9;2;9;6;10;539;6
26.01.21;13:45:00;1;943;8549;0;2;6;39;6;10;437;6;3;1;12;6;5;530;10;4;18;29;3;19;199;4;5;0;0;0;0;0;0;0;0;6;99;318;4;44;66;450;449;20;7;6;15;3;15;488;9;8;1;11;3;6;491;8;9;1;8;6;7;537;6
26.01.21;13:40:00;1;344;8481;0;2;9;38;4;16;417;6;3;0;12;6;0;545;10;4;10;27;3;10;199;4;5;0;0;0;0;0;0;0;0;6;85;310;4;37;62;450;449;20;7;3;15;6;6;507;9;8;0;11;6;4;483;8;9;0;8;4;3;530;6
26.01.21;13:35:00;1;353;8452;0;2;4;37;6;9;434;6;3;2;12;3;4;526;10;4;12;26;3;12;199;4;5;0;0;0;0;0;0;0;0;6;85;303;4;35;59;450;448;20;7;10;15;6;15;482;9;8;3;11;6;5;486;8;9;4;8;3;7;533;6
26.01.21;13:30:00;1;1086;8422;0;2;4;37;6;7;432;6;3;2;12;6;4;523;10;4;14;26;3;15;199;4;5;0;0;0;0;0;0;0;0;6;83;295;4;29;49;450;448;20;7;0;14;6;7;506;9;8;2;10;6;4;481;8;9;2;8;6;2;552;6
26.01.21;13:25:00;1;354;8359;0;2;5;36;6;9;434;6;3;2;11;6;4;526;10;4;6;24;3;6;199;4;5;0;0;0;0;0;0;0;0;6;88;288;4;32;51;450;449;20;7;9;14;6;15;481;9;8;2;10;6;4;486;8;9;2;8;6;6;530;6
26.01.21;13:20:00;1;394;8329;0;2;6;36;6;9;435;6;3;0;11;6;5;529;10;4;9;24;3;10;199;4;5;0;0;0;0;0;0;0;0;6;94;281;4;44;68;450;449;19;7;0;13;6;0;533;9;8;0;10;6;0;511;8;9;0;7;6;3;540;6
26.01.21;13:15:00;1;616;8297;0;2;5;36;6;9;435;6;3;0;11;6;5;531;10;4;11;23;3;12;199;4;5;0;0;0;0;0;0;0;0;6;96;273;4;45;65;450;448;19;7;4;13;3;8;506;9;8;0;10;4;6;492;8;9;1;7;6;7;536;6
26.01.21;13:10:00;1;372;8233;0;2;10;35;4;18;414;6;3;0;11;6;0;548;10;4;16;22;3;16;199;4;5;0;0;0;0;0;0;0;0;6;81;265;4;34;50;453;452;19;7;2;13;6;4;501;9;8;2;10;3;8;459;8;9;0;7;6;0;576;6
26.01.21;13:05:00;1;443;8202;0;2;4;34;3;7;428;6;3;0;11;4;4;523;10;4;10;21;3;10;199;4;5;0;0;0;0;0;0;0;0;6;13;258;4;11;11;560;609;18;7;0;13;6;4;496;9;8;0;10;6;4;479;8;9;4;7;3;6;521;6
26.01.21;13:00:00;1;1461;8165;0;2;4;34;6;7;425;6;3;0;11;6;4;522;10;4;2;20;3;2;199;4;5;0;0;0;0;0;0;0;0;6;54;257;4;19;21;312;307;19;7;5;12;6;6;495;9;8;2;10;6;4;475;8;9;2;7;6;2;544;6
26.01.21;12:55:00;1;862;8057;0;2;1;33;6;4;417;6;3;0;11;6;3;507;10;4;2;20;3;2;225;4;5;0;0;0;0;0;0;0;0;6;0;253;8;7;7;588;615;18;7;2;12;6;3;465;9;8;1;10;6;1;450;8;9;1;7;6;2;486;6
26.01.21;12:50:00;1;853;7978;0;2;2;33;6;5;422;6;3;3;11;6;7;488;10;4;4;20;3;4;199;4;5;0;0;0;0;0;0;0;0;6;65;252;4;28;46;490;478;19;7;0;12;6;1;477;9;8;0;10;6;1;464;8;9;1;6;6;1;513;6
26.01.21;12:45:00;1;1257;7882;0;2;7;33;6;10;437;6;3;1;11;6;7;539;10;4;33;19;3;34;199;4;5;0;0;0;0;0;0;0;0;6;115;247;4;49;74;490;477;19;7;5;12;4;7;505;9;8;1;10;4;6;491;8;9;1;6;6;7;516;6
26.01.21;12:40:00;1;1868;7742;0;2;8;33;4;11;435;6;3;2;11;6;6;535;10;4;25;17;3;26;199;4;5;0;0;0;0;0;0;0;0;6;56;237;4;33;45;567;556;18;7;4;12;6;7;500;9;8;8;9;3;14;454;8;9;0;6;6;0;568;6
26.01.21;12:35:00;1;463;7589;0;2;6;31;3;9;427;6;3;0;11;4;5;526;10;4;15;14;3;16;199;3;5;0;0;0;0;0;0;0;0;6;33;232;1;20;23;358;357;19;7;2;11;6;7;495;9;8;5;8;6;9;463;8;9;0;6;3;3;538;6
26.01.21;12:30:00;1;4027;7511;0;2;2;31;6;5;422;6;3;3;11;3;8;471;10;4;0;13;3;0;232;3;5;0;0;0;0;0;0;0;0;6;0;230;8;8;3;484;622;19;7;1;11;6;7;453;9;8;1;8;6;2;469;8;9;1;6;6;1;517;6
26.01.21;12:25:00;1;1286;7188;0;2;2;31;6;5;415;6;3;2;10;6;3;502;10;4;0;13;3;0;234;3;5;0;0;0;0;0;0;0;0;6;0;230;1;5;4;502;616;19;7;2;11;6;2;459;9;8;2;8;6;2;433;8;9;0;6;6;1;498;6